Weather History for KLJF - February, 2012

Change the Weather History Date:

Friday, February 10, 2012

  Actual Average Record
Temperature  
Mean Temperature 6 °F -  
Max Temperature 12 °F 24 °F 47 °F (1977)
Min Temperature 0 °F 7 °F -20 °F (2011)
Degree Days  
Heating Degree Days 59    
Moisture  
Dew Point -7 °F    
Average Humidity 55    
Maximum Humidity 72    
Minimum Humidity 34    
Precipitation  
Precipitation 0.00 in - - ()
Sea Level Pressure  
Sea Level Pressure 30.30 in    
Wind  
Wind Speed 17 mph (NNW)    
Max Wind Speed 23 mph    
Max Gust Speed 30 mph    
Visibility 10 miles    
Events      
Averages and records for this station are not official NWS values.
T = Trace of Precipitation, MM = Missing Value Source: NWS Daily Summary

Daily Weather History Graph

Daily Weather History Graph

Search for Another Location

Airport or City:

Trip Planner

Search our weather history database for the weather conditions in past years. The results will help you decide how hot, cold, wet, or windy it might be!

Date:

Astronomy

Feb. 10, 2012 Rise Set
Actual Time 7:27 AM CST 5:38 PM CST
Civil Twilight 6:56 AM CST 6:08 PM CST
Nautical Twilight 6:21 AM CST 6:43 PM CST
Astronomical Twilight 5:47 AM CST 7:17 PM CST
Moon 9:30 PM CST (2/10) 8:24 AM CST (2/10)
Length of Visible Light 11h 12m
Length of Day
10h 11m
Waning Gibbous, 90% of the Moon is Illuminated
Feb 10
Waning Gibbous
Feb 14
Last Quarter
Feb 21
New
Feb 29
First Quarter
Mar 8
Full

Hourly Weather History & Observations

Time (CST) Temp. Windchill Dew Point Humidity Pressure Visibility Wind Dir Wind Speed Gust Speed Precip Events Conditions
12:13 AM 12.2 °F -3.1 °F 3.2 °F 67% 30.06 in 10.0 mi NW 13.8 mph 24.2 mph N/A   Mostly Cloudy
12:33 AM 12.2 °F -4.3 °F 1.4 °F 62% 30.07 in 10.0 mi NNW 16.1 mph 25.3 mph N/A   Scattered Clouds
12:52 AM 10.4 °F -7.2 °F 1.4 °F 67% 30.07 in 10.0 mi NW 17.3 mph 26.5 mph N/A   Clear
1:13 AM 10.4 °F -7.2 °F 1.4 °F 67% 30.08 in 10.0 mi NNW 17.3 mph 21.9 mph N/A   Clear
1:33 AM 10.4 °F -6.6 °F 1.4 °F 67% 30.09 in 10.0 mi NNW 16.1 mph 24.2 mph N/A   Clear
1:53 AM 10.4 °F -7.2 °F -0.4 °F 62% 30.10 in 10.0 mi NNW 17.3 mph 26.5 mph N/A   Clear
2:13 AM 10.4 °F -8.2 °F -0.4 °F 62% 30.10 in 10.0 mi NNW 19.6 mph - N/A   Clear
2:33 AM 10.4 °F -9.1 °F -0.4 °F 62% 30.11 in 10.0 mi NNW 21.9 mph 27.6 mph N/A   Clear
2:53 AM 8.6 °F -11.0 °F -0.4 °F 67% 30.12 in 10.0 mi NNW 20.7 mph 26.5 mph N/A   Clear
3:13 AM 8.6 °F -10.0 °F -2.2 °F 62% 30.12 in 10.0 mi NNW 18.4 mph 26.5 mph N/A   Clear
3:33 AM 8.6 °F -11.0 °F -2.2 °F 62% 30.13 in 10.0 mi NNW 20.7 mph 26.5 mph N/A   Clear
3:54 AM 6.8 °F -13.4 °F -2.2 °F 67% 30.14 in 10.0 mi NNW 20.7 mph 27.6 mph N/A   Mostly Cloudy
4:13 AM 6.8 °F -11.3 °F -2.2 °F 67% 30.15 in 10.0 mi NNW 16.1 mph 26.5 mph N/A   Overcast
4:33 AM 6.8 °F -13.8 °F -4.0 °F 61% 30.16 in 10.0 mi NNW 21.9 mph 29.9 mph N/A   Overcast
4:53 AM 5.0 °F -15.2 °F -4.0 °F 66% 30.18 in 10.0 mi North 19.6 mph 26.5 mph N/A   Scattered Clouds
5:12 AM 3.2 °F -18.1 °F -5.8 °F 66% 30.19 in 10.0 mi NNW 20.7 mph 26.5 mph N/A   Clear
5:33 AM 3.2 °F -17.1 °F -5.8 °F 66% 30.21 in 10.0 mi NNW 18.4 mph 23.0 mph N/A   Clear
6:13 AM 1.4 °F -19.9 °F -7.6 °F 66% 30.22 in 10.0 mi NNW 19.6 mph 27.6 mph N/A   Clear
6:33 AM 1.4 °F -19.4 °F -7.6 °F 66% 30.23 in 10.0 mi NNW 18.4 mph 23.0 mph N/A   Clear
6:53 AM -0.4 °F -22.3 °F -7.6 °F 72% 30.24 in 10.0 mi NNW 19.6 mph - N/A   Clear
7:12 AM -0.4 °F -19.2 °F -7.6 °F 72% 30.25 in 10.0 mi North 13.8 mph - N/A   Clear
7:33 AM -0.4 °F -22.3 °F -7.6 °F 72% 30.26 in 10.0 mi North 19.6 mph - N/A   Clear
7:53 AM -0.4 °F -22.8 °F -7.6 °F 72% 30.27 in 10.0 mi NNW 20.7 mph 26.5 mph N/A   Clear
8:13 AM -0.4 °F -20.5 °F -7.6 °F 72% 30.29 in 10.0 mi North 16.1 mph 24.2 mph N/A   Clear
8:33 AM -0.4 °F -21.2 °F -7.6 °F 72% 30.30 in 10.0 mi North 17.3 mph 23.0 mph N/A   Clear
8:53 AM -0.4 °F -21.7 °F -7.6 °F 72% 30.30 in 10.0 mi North 18.4 mph - N/A   Clear
9:12 AM 1.4 °F -21.0 °F -7.6 °F 66% 30.31 in 10.0 mi North 21.9 mph 26.5 mph N/A   Clear
9:33 AM 1.4 °F -19.9 °F -7.6 °F 66% 30.31 in 10.0 mi NNW 19.6 mph 25.3 mph N/A   Clear
9:53 AM 1.4 °F -21.4 °F -7.6 °F 66% 30.32 in 10.0 mi NNW 23.0 mph - N/A   Clear
10:13 AM 3.2 °F -18.1 °F -7.6 °F 61% 30.32 in 10.0 mi North 20.7 mph 24.2 mph N/A   Clear
10:33 AM 3.2 °F -18.6 °F -7.6 °F 61% 30.33 in 10.0 mi North 21.9 mph 26.5 mph N/A   Clear
10:53 AM 5.0 °F -15.2 °F -9.4 °F 52% 30.34 in 10.0 mi North 19.6 mph 28.8 mph N/A   Clear
11:13 AM 6.8 °F -13.8 °F -7.6 °F 52% 30.35 in 10.0 mi North 21.9 mph 27.6 mph N/A   Clear
11:33 AM 6.8 °F -12.9 °F -7.6 °F 52% 30.35 in 10.0 mi North 19.6 mph 26.5 mph N/A   Clear
11:53 AM 6.8 °F -12.9 °F -7.6 °F 52% 30.35 in 10.0 mi North 19.6 mph 28.8 mph N/A   Clear
12:13 PM 8.6 °F -10.0 °F -7.6 °F 48% 30.35 in 10.0 mi North 18.4 mph 28.8 mph N/A   Clear
12:33 PM 8.6 °F -8.9 °F -7.6 °F 48% 30.35 in 10.0 mi North 16.1 mph 24.2 mph N/A   Clear
12:53 PM 8.6 °F -10.5 °F -7.6 °F 48% 30.35 in 10.0 mi North 19.6 mph 26.5 mph N/A   Clear
1:12 PM 10.4 °F -9.5 °F -9.4 °F 41% 30.35 in 10.0 mi North 23.0 mph 27.6 mph N/A   Clear
1:33 PM 10.4 °F -7.2 °F -9.4 °F 41% 30.36 in 10.0 mi North 17.3 mph 23.0 mph N/A   Clear
1:53 PM 12.2 °F -4.8 °F -9.4 °F 38% 30.36 in 10.0 mi NNE 17.3 mph 25.3 mph N/A   Clear
2:13 PM 10.4 °F -8.2 °F -11.2 °F 37% 30.36 in 10.0 mi North 19.6 mph 25.3 mph N/A   Clear
2:33 PM 10.4 °F -7.7 °F -11.2 °F 37% 30.37 in 10.0 mi North 18.4 mph 21.9 mph N/A   Clear
2:53 PM 12.2 °F -4.3 °F -11.2 °F 34% 30.38 in 10.0 mi North 16.1 mph 20.7 mph N/A   Clear
3:13 PM 10.4 °F -6.6 °F -11.2 °F 37% 30.39 in 10.0 mi North 16.1 mph 26.5 mph N/A   Clear
3:33 PM 12.2 °F -4.8 °F -11.2 °F 34% 30.40 in 10.0 mi North 17.3 mph 25.3 mph N/A   Clear
3:53 PM 12.2 °F -4.3 °F -9.4 °F 38% 30.41 in 10.0 mi North 16.1 mph 23.0 mph N/A   Clear
4:13 PM 12.2 °F -3.1 °F -9.4 °F 38% 30.41 in 10.0 mi North 13.8 mph 20.7 mph N/A   Clear
4:33 PM 12.2 °F -4.8 °F -7.6 °F 41% 30.42 in 10.0 mi North 17.3 mph 23.0 mph N/A   Clear
4:53 PM 12.2 °F -5.8 °F -7.6 °F 41% 30.43 in 10.0 mi North 19.6 mph 25.3 mph N/A   Clear
5:13 PM 10.4 °F -7.2 °F -7.6 °F 44% 30.43 in 10.0 mi North 17.3 mph 21.9 mph N/A   Clear
5:33 PM 10.4 °F -6.0 °F -9.4 °F 41% 30.44 in 10.0 mi North 15.0 mph 20.7 mph N/A   Clear
5:53 PM 8.6 °F -7.7 °F -9.4 °F 44% 30.45 in 10.0 mi North 13.8 mph - N/A   Clear
6:13 PM 8.6 °F -7.7 °F -11.2 °F 40% 30.46 in 10.0 mi North 13.8 mph 20.7 mph N/A   Clear
6:33 PM 8.6 °F -8.3 °F -11.2 °F 40% 30.47 in 10.0 mi North 15.0 mph - N/A   Clear
6:53 PM 8.6 °F -5.5 °F -11.2 °F 40% 30.48 in 10.0 mi North 10.4 mph - N/A   Clear
7:13 PM 6.8 °F -7.8 °F -9.4 °F 48% 30.49 in 10.0 mi NNW 10.4 mph - N/A   Clear
7:33 PM 6.8 °F -7.8 °F -9.4 °F 48% 30.50 in 10.0 mi NNW 10.4 mph - N/A   Clear
7:54 PM 6.8 °F -7.8 °F -11.2 °F 44% 30.50 in 10.0 mi NNW 10.4 mph - N/A   Clear
8:13 PM 6.8 °F -8.6 °F -11.2 °F 44% 30.51 in 10.0 mi NNW 11.5 mph - N/A   Clear
8:33 PM 6.8 °F -8.6 °F -11.2 °F 44% 30.51 in 10.0 mi NNW 11.5 mph 20.7 mph N/A   Clear
8:52 PM 6.8 °F -9.3 °F -11.2 °F 44% 30.52 in 10.0 mi NNW 12.7 mph - N/A   Clear
9:13 PM 5.0 °F -10.8 °F -11.2 °F 47% 30.53 in 10.0 mi NNW 11.5 mph - N/A   Clear
9:32 PM 5.0 °F -10.0 °F -11.2 °F 47% 30.54 in 10.0 mi NNW 10.4 mph - N/A   Clear
9:53 PM 3.2 °F -11.3 °F -9.4 °F 56% 30.54 in 10.0 mi NW 9.2 mph - N/A   Clear
10:13 PM 1.4 °F -15.3 °F -9.4 °F 61% 30.55 in 10.0 mi NW 11.5 mph - N/A   Clear
10:33 PM 1.4 °F -15.3 °F -9.4 °F 61% 30.55 in 10.0 mi NW 11.5 mph - N/A   Clear
10:53 PM 1.4 °F -15.3 °F -9.4 °F 61% 30.56 in 10.0 mi NW 11.5 mph 17.3 mph N/A   Clear
11:13 PM 1.4 °F -16.9 °F -9.4 °F 61% 30.57 in 10.0 mi NW 13.8 mph - N/A   Clear
11:33 PM -0.4 °F -18.4 °F -9.4 °F 66% 30.57 in 10.0 mi NW 12.7 mph 18.4 mph N/A   Clear
11:53 PM -0.4 °F -16.7 °F -9.4 °F 66% 30.58 in 10.0 mi NW 10.4 mph - N/A   Clear